Main page
METAR-TAF:

METAR-TAF

Airports :

Santa Rosa International Airport

Machala, Ecuador

latitude: 03-26-07S, longitude: 079-58-40W, elevation: 52 m

Current weather observation

The report was made 56 minutes ago, at 20:00 UTC
Wind 5 kt from the Northwest
Temperature 29°C
Humidity 66%
Pressure 1008 hPa
Visibility 10 km or more
Overcast at a height of 8000 ft

METAR: SERO 212000Z 31005KT 9999 OVC080 29/22 Q1008

Time: 15:56 (20:56 UTC)


TAF: missing

Weather observations and forecasts of more than 4000 airports (METAR and TAF reports).

The available stations are represented by yellow and red dots on the map.

Hover mouse over dot to see the name of the station.

Then click to see weather observations and forecasts.

To change the map : click on the green buttons with a black cross to zoom in, on the green button with a dash to zoom out, or on the green arrows for adjacent maps.


METAR-TAF: